This is the latest recevied weather packets stored in our database for station/object N4HAC. If no packets are shown the sender has not sent any weather packets the latest 1 day(s).
| Time | Temp. | Humidity | Pressure | Rain* | Wind** | Luminosity | Snow |
|---|---|---|---|---|---|---|---|
| 1778007379 | 27.22° C | 37% | 1004.3 hPa | 0 mm | 8.05 m/s, 166° | 758 W/m² | - |
| 1778007075 | 27.78° C | 38% | 1004.4 hPa | 0 mm | 5.36 m/s, 146° | 766 W/m² | - |
| 1778006771 | 27.22° C | 40% | 1004.5 hPa | 0 mm | 4.92 m/s, 136° | 696 W/m² | - |
| 1778006468 | 26.67° C | 39% | 1004.4 hPa | 0 mm | 4.02 m/s, 146° | 715 W/m² | - |
| 1778006165 | 26.67° C | 39% | 1004.7 hPa | 0 mm | 8.05 m/s, 132° | 734 W/m² | - |
| 1778005863 | 27.22° C | 39% | 1004.8 hPa | 0 mm | 4.47 m/s, 122° | 749 W/m² | - |
| 1778005559 | 27.78° C | 40% | 1004.7 hPa | 0 mm | 3.13 m/s, 133° | 767 W/m² | - |
| 1778005256 | 27.22° C | 34% | 1005.1 hPa | 0 mm | 5.81 m/s, 142° | 810 W/m² | - |
| 1778004952 | 26.67° C | 35% | 1004.8 hPa | 0 mm | 6.71 m/s, 137° | 799 W/m² | - |
| 1778004650 | 27.78° C | 40% | 1004.7 hPa | 0 mm | 4.02 m/s, 146° | 636 W/m² | - |
| 1778004345 | 26.67° C | 39% | 1004.8 hPa | 0 mm | 6.71 m/s, 139° | 824 W/m² | - |
| 1778004044 | 27.22° C | 38% | 1004.9 hPa | 0 mm | 10.73 m/s, 146° | 804 W/m² | - |
| 1778003743 | 27.22° C | 36% | 1005 hPa | 0 mm | 3.58 m/s, 132° | 807 W/m² | - |
| 1778003441 | 27.78° C | 37% | 1005.2 hPa | 0 mm | 0.89 m/s, 99° | 824 W/m² | - |
| 1778003138 | 26.67° C | 36% | 1004.7 hPa | 0 mm | 5.36 m/s, 146° | 787 W/m² | - |
| 1778002833 | 27.22° C | 33% | 1005.1 hPa | 0 mm | 8.05 m/s, 166° | 822 W/m² | - |
| 1778002531 | 27.22° C | 38% | 1005.2 hPa | 0 mm | 4.47 m/s, 151° | 818 W/m² | - |
| 1778002227 | 27.22° C | 41% | 1005 hPa | 0 mm | 5.36 m/s, 144° | 828 W/m² | - |
| 1778001925 | 26.67° C | 39% | 1005.2 hPa | 0 mm | 1.79 m/s, 165° | 782 W/m² | - |
| 1778001621 | 26.67° C | 39% | 1005.3 hPa | 0 mm | 4.47 m/s, 132° | 830 W/m² | - |
| 1778001316 | 26.67° C | 41% | 1005.3 hPa | 0 mm | 1.79 m/s, 53° | 848 W/m² | - |
| 1778001014 | 26.11° C | 42% | 1005.4 hPa | 0 mm | 4.47 m/s, 143° | 781 W/m² | - |
| 1778000710 | 26.11° C | 42% | 1005.3 hPa | 0 mm | 4.92 m/s, 149° | 831 W/m² | - |
| 1778000406 | 26.67° C | 46% | 1005.3 hPa | 0 mm | 2.68 m/s, 136° | 822 W/m² | - |
| 1778000102 | 26.11° C | 43% | 1005.5 hPa | 0 mm | 2.24 m/s, 160° | 849 W/m² | - |
* Rain latest hour (hover to see other rain measurements)
** Current wind speed in m/s (hover to see current wind gust speed)